Time,TemperatureF,DewpointF,PressureIn,WindDirection,WindDirectionDegrees,WindSpeedMPH,WindSpeedGustMPH,Humidity,HourlyPrecipIn,Conditions,Clouds,dailyrainin,SoftwareType,DateUTC
2013-03-15 02:57:00,27.0,15.7,29.86,ENE,68,1.6,1.6,62,0.00,,,0.00,WUHU216HW,2013-03-15 06:57:00,
2013-03-15 02:58:00,27.0,15.7,29.86,ENE,68,1.6,1.6,62,0.00,,,0.00,WUHU216HW,2013-03-15 06:58:00,
2013-03-15 03:03:00,25.6,12.0,29.86,WSW,256,1.7,2.5,56,0.00,,,0.00,WUHU216HW,2013-03-15 07:03:00,
2013-03-15 03:08:00,25.6,12.0,29.86,WNW,293,3.4,3.4,56,0.00,,,0.00,WUHU216HW,2013-03-15 07:08:00,
2013-03-15 03:13:00,25.4,11.8,29.86,NNW,328,2.0,3.4,56,0.00,,,0.00,WUHU216HW,2013-03-15 07:13:00,
2013-03-15 03:18:00,25.4,12.3,29.86,West,270,2.0,3.4,57,0.00,,,0.00,WUHU216HW,2013-03-15 07:18:00,
2013-03-15 03:23:00,25.4,12.3,29.86,NW,316,2.0,4.7,57,0.00,,,0.00,WUHU216HW,2013-03-15 07:23:00,
2013-03-15 03:28:00,25.2,11.6,29.86,WNW,292,2.4,4.7,56,0.00,,,0.00,WUHU216HW,2013-03-15 07:28:00,
2013-03-15 03:33:00,25.2,12.1,29.86,WNW,285,2.7,4.7,57,0.00,,,0.00,WUHU216HW,2013-03-15 07:33:00,
2013-03-15 03:38:00,25.2,12.1,29.86,WSW,248,1.3,4.7,57,0.00,,,0.00,WUHU216HW,2013-03-15 07:38:00,
2013-03-15 03:43:00,25.0,11.9,29.86,WNW,293,1.8,3.8,57,0.00,,,0.00,WUHU216HW,2013-03-15 07:43:00,
2013-03-15 03:48:00,24.8,12.2,29.86,NNE,27,2.2,4.0,58,0.00,,,0.00,WUHU216HW,2013-03-15 07:48:00,
2013-03-15 03:53:00,24.8,11.7,29.86,NW,325,2.5,4.7,57,0.00,,,0.00,WUHU216HW,2013-03-15 07:53:00,
2013-03-15 03:58:00,24.8,12.2,29.86,SW,225,1.8,4.7,58,0.00,,,0.00,WUHU216HW,2013-03-15 07:58:00,
2013-03-15 04:03:00,24.8,12.5,29.86,West,270,1.6,4.9,59,0.00,,,0.00,WUHU216HW,2013-03-15 08:03:00,
2013-03-15 04:08:00,24.7,12.3,29.86,SSW,203,2.5,4.9,59,0.00,,,0.00,WUHU216HW,2013-03-15 08:08:00,
2013-03-15 04:13:00,24.7,12.3,29.86,NW,315,2.5,3.4,59,0.00,,,0.00,WUHU216HW,2013-03-15 08:13:00,
2013-03-15 04:18:00,24.5,12.2,29.86,SW,225,1.1,3.4,59,0.00,,,0.00,WUHU216HW,2013-03-15 08:18:00,
2013-03-15 04:23:00,24.5,12.2,29.86,ESE,113,1.8,3.8,59,0.00,,,0.00,WUHU216HW,2013-03-15 08:23:00,
2013-03-15 04:28:00,24.3,12.0,29.87,West,281,1.1,3.8,59,0.00,,,0.00,WUHU216HW,2013-03-15 08:28:00,
2013-03-15 04:33:00,24.3,12.4,29.86,NNW,346,2.1,3.4,60,0.00,,,0.00,WUHU216HW,2013-03-15 08:33:00,
2013-03-15 04:38:00,24.1,12.6,29.87,SSE,153,1.2,4.5,61,0.00,,,0.00,WUHU216HW,2013-03-15 08:38:00,
2013-03-15 04:43:00,24.1,12.2,29.87,North,0,2.0,4.5,60,0.00,,,0.00,WUHU216HW,2013-03-15 08:43:00,
2013-03-15 04:48:00,24.1,12.6,29.87,ENE,57,1.4,3.6,61,0.00,,,0.00,WUHU216HW,2013-03-15 08:48:00,
2013-03-15 04:53:00,23.9,12.4,29.87,NNE,23,1.3,3.6,61,0.00,,,0.00,WUHU216HW,2013-03-15 08:53:00,
2013-03-15 04:58:00,23.9,12.8,29.87,WNW,286,1.6,4.5,62,0.00,,,0.00,WUHU216HW,2013-03-15 08:58:00,
2013-03-15 05:03:00,23.9,13.5,29.87,WNW,293,2.0,4.5,64,0.00,,,0.00,WUHU216HW,2013-03-15 09:03:00,
2013-03-15 05:08:00,23.9,12.8,29.88,South,177,0.7,4.0,62,0.00,,,0.00,WUHU216HW,2013-03-15 09:08:00,
2013-03-15 05:13:00,23.8,12.6,29.87,SSW,213,1.2,3.8,62,0.00,,,0.00,WUHU216HW,2013-03-15 09:13:00,
2013-03-15 05:18:00,23.6,12.4,29.88,SW,225,2.5,2.5,62,0.00,,,0.00,WUHU216HW,2013-03-15 09:18:00,
2013-03-15 05:23:00,23.4,13.0,29.88,West,270,2.5,3.4,64,0.00,,,0.00,WUHU216HW,2013-03-15 09:23:00,
2013-03-15 05:28:00,23.4,13.0,29.88,SE,135,1.1,3.4,64,0.00,,,0.00,WUHU216HW,2013-03-15 09:28:00,
2013-03-15 05:33:00,23.2,12.8,29.88,NNE,25,0.7,3.4,64,0.00,,,0.00,WUHU216HW,2013-03-15 09:33:00,
2013-03-15 05:38:00,23.2,12.8,29.88,ENE,57,0.9,3.4,64,0.00,,,0.00,WUHU216HW,2013-03-15 09:38:00,
2013-03-15 05:43:00,23.0,12.6,29.89,ENE,68,2.2,3.4,64,0.00,,,0.00,WUHU216HW,2013-03-15 09:43:00,
2013-03-15 05:48:00,23.0,12.6,29.89,ENE,62,0.4,2.5,64,0.00,,,0.00,WUHU216HW,2013-03-15 09:48:00,
2013-03-15 05:53:00,22.9,12.4,29.89,SSW,203,0.2,2.2,64,0.00,,,0.00,WUHU216HW,2013-03-15 09:53:00,
2013-03-15 05:58:00,22.9,12.4,29.89,East,90,1.1,3.6,64,0.00,,,0.00,WUHU216HW,2013-03-15 09:58:00,
2013-03-15 06:03:00,22.7,12.2,29.89,North,0,0.0,3.6,64,0.00,,,0.00,WUHU216HW,2013-03-15 10:03:00,
2013-03-15 06:08:00,22.7,12.2,29.89,North,0,0.0,1.8,64,0.00,,,0.00,WUHU216HW,2013-03-15 10:08:00,